カタリナ彗星

403P/Catalina (2020)

English version
Home page
Updated on June 14, 2021

---------------------------------------------------------------------

・ プロフィール

符号 403P/2020 T1
検出日 2020年10月15日
検出光度 19.7等
検出者 G. J. Leonard (Mt. Lemmon)

・ 写真集

・ 軌道要素

Epoch 2020 Sept. 28.0 TT = JDT 2459120.5
T 2020 Sept. 16.37832 TT                                Rudenko
q   2.6952830            (2000.0)            P               Q
n   0.07799196     Peri.  277.67315     +0.14161867     -0.98813346
a   5.4254550      Node   163.81700     +0.97138553     +0.12714529
e   0.5032153      Incl.   12.31997     +0.19066807     +0.08617624
P  12.6
From 221 observations 2007 Nov. 3-2021 Apr. 7, mean residual 0".9.

・ 光度変化

        m1 = 10.5 + 5 logΔ + 15.0 log r(t - 50)

---------------------------------------------------------------------

軌道要素はM.P.E.C. 2021-J28に掲載されたものです。
光度グラフはComet for Windowsで作成したものです。

---------------------------------------------------------------------

Copyright(C) Seiichi Yoshida (comet@aerith.net). All rights reserved.